[[{"header":{"parameterUnit":"m.s-1","parameterCategory":1,"la1":30.2992,"la2":30.254,"lo1":-89.0895,"lo2":-89.0443,"dy":0.0025,"dx":0.0025,"nx":19,"ny":19,"refTime":"2026-04-03T09:00:00:Z","depth":0,"parameterNumber":2,"parameterNumberName":"U-component_of_WINDS"},"data":[0,0,0,-3.3833,-3.3835,-3.3947,-3.3948,-3.4092,-3.4093,0,0,0,0,0,0,0,0,0,0,0,-3.3799,-3.3799,-3.3832,-3.3835,-3.3947,-3.3948,-3.4091,-3.4093,0,0,0,0,0,0,0,0,0,0,0,-3.3798,-3.3799,-3.38,-3.3836,-3.3947,-3.3948,-3.4091,-3.4007,0,0,0,0,0,0,0,0,0,0,-3.3898,-3.3865,-3.3799,-3.38,-3.3836,-3.3947,-3.3948,-3.4002,-3.4012,-3.4041,0,-3.4065,0,-3.4082,-3.4103,-3.4103,0,0,0,-3.3836,-3.3857,-3.3888,-3.3801,-3.3837,-3.3947,-3.3897,-3.4008,-3.4018,-3.4053,-3.4067,-3.4073,-3.4084,-3.4103,-3.4104,-3.4268,-3.4269,0,0,-3.383,-3.3818,-3.3881,-3.3895,-3.3877,-3.3893,-3.39,-3.4014,-3.4029,-3.4068,-3.4076,-3.4086,-3.4104,-3.4106,-3.4267,-3.4268,0,0,0,-3.3811,-3.3814,-3.3842,-3.3889,-3.3909,-3.3896,-3.3905,-3.4024,-3.4034,-3.4078,-3.4088,-3.4105,-3.4107,-3.4266,-3.4267,-3.4291,0,0,0,-3.3808,-3.3803,-3.3839,-3.3834,-3.3907,-3.3968,-3.3912,-3.4026,-3.404,-3.4087,-3.4105,-3.4108,-3.4266,-3.4267,-3.4289,-3.4303,0,0,0,-3.3792,-3.3801,-3.3817,-3.3833,-3.3881,-3.3966,-3.3983,-3.4029,-3.4046,-3.4103,-3.4109,-3.4265,-3.4267,-3.4287,-3.43,-3.4343,0,0,0,-3.3771,-3.3837,-3.3817,-3.3896,-3.388,-3.3981,-3.3982,-3.4058,-3.4111,-3.4106,-3.4266,-3.4267,-3.4286,-3.4298,-3.434,-3.4374,-3.4388,0,0,-3.3847,-3.3845,-3.3893,-3.3879,-3.398,-3.3964,-3.407,-3.4129,-3.4145,-3.4226,-3.4231,-3.429,-3.43,-3.4342,-3.4473,-3.4484,0,0,0,-3.3913,-3.3946,-3.3976,-3.4025,-3.4072,-3.4113,-3.4158,-3.418,-3.425,-3.4184,-3.4318,-3.4324,-3.435,-3.4366,-3.4376,-3.4398,-3.4275,-3.4275,-3.4275,-3.4002,-3.4021,-3.41,-3.4132,-3.418,-3.4227,-3.4268,-3.4306,-3.431,-3.4342,-3.4364,-3.4442,-3.4461,-3.4468,-3.4491,-3.4386,-3.4386,-3.4386,-3.4387,-3.4115,-3.4164,-3.4171,-3.4249,-3.4269,-3.4335,-3.4384,-3.4385,-3.4451,-3.4425,-3.4449,-3.4417,-3.4479,-3.45,-3.4388,-3.4388,-3.4388,-3.4388,-3.4388,-3.4173,-3.42,-3.4227,-3.4302,-3.4358,-3.439,-3.4453,-3.4469,-3.4485,-3.4508,-3.4534,-3.4534,-3.4534,-3.452,-3.4521,-3.4521,-3.4521,-3.4521,-3.4522,-3.4222,-3.4252,-3.4302,-3.436,-3.4395,-3.4443,-3.4493,-3.4528,-3.4572,-3.4579,-3.4579,-3.458,-3.4483,-3.4457,-3.4526,-3.4525,-3.4524,-3.4524,-3.4524,-3.4325,-3.4305,-3.4382,-3.4417,-3.4488,-3.4543,-3.4565,-3.4635,-3.4667,-3.4698,-3.4696,-3.4622,-3.4621,-3.4614,-3.4592,-3.4692,-3.4692,-3.4692,-3.4692,-3.4372,-3.4375,-3.4458,-3.4513,-3.457,-3.4598,-3.4687,-3.4729,-3.4768,-3.4789,-3.4778,-3.4752,-3.4744,-3.4748,-3.4738,-3.4718,-3.4847,-3.4847,-3.4847,-3.4436,-3.4445,-3.4515,-3.4554,-3.4611,-3.466,-3.4745,-3.4809,-3.485,-3.4854,-3.4806,-3.48,-3.4758,-3.4743,-3.4742,-3.4726,-3.469,0,0]},{"header":{"parameterUnit":"m.s-1","parameterCategory":1,"la1":30.2992,"la2":30.254,"lo1":-89.0895,"lo2":-89.0443,"dy":0.0025,"dx":0.0025,"nx":19,"ny":19,"refTime":"2026-04-03T09:00:00:Z","depth":0,"parameterNumber":3,"parameterNumberName":"V-component_of_WINDS"},"data":[0,0,0,3.4763,3.4764,3.4861,3.4861,3.4962,3.4962,0,0,0,0,0,0,0,0,0,0,0,3.4722,3.4722,3.4762,3.4764,3.4861,3.4861,3.4961,3.4962,0,0,0,0,0,0,0,0,0,0,0,3.4721,3.4722,3.4722,3.4765,3.486,3.4861,3.4961,3.4896,0,0,0,0,0,0,0,0,0,0,3.4806,3.4757,3.4722,3.4722,3.4765,3.486,3.4861,3.4894,3.49,3.4909,0,3.4914,0,3.494,3.4968,3.4968,0,0,0,3.4773,3.4751,3.4789,3.4722,3.4766,3.486,3.482,3.4898,3.4905,3.4918,3.4916,3.492,3.4942,3.4968,3.4969,3.4995,3.4995,0,0,3.4768,3.4732,3.4783,3.4793,3.4779,3.4816,3.4822,3.4903,3.4898,3.4917,3.4923,3.4943,3.4969,3.4969,3.4995,3.4995,0,0,0,3.4747,3.4727,3.4764,3.4788,3.4808,3.4819,3.4826,3.4894,3.4909,3.4924,3.4945,3.4969,3.497,3.4995,3.4995,3.4948,0,0,0,3.4744,3.4715,3.4761,3.474,3.4806,3.4852,3.4815,3.4903,3.4914,3.4944,3.4969,3.4971,3.4996,3.4995,3.495,3.4931,0,0,0,3.4719,3.4713,3.4723,3.4738,3.4778,3.4852,3.4872,3.4906,3.4925,3.4968,3.4971,3.4996,3.4995,3.4952,3.4935,3.4929,0,0,0,3.4682,3.4677,3.4721,3.4723,3.4777,3.4823,3.4872,3.4907,3.4938,3.497,3.4996,3.4995,3.4953,3.4936,3.4931,3.4919,3.491,0,0,3.4656,3.4672,3.4677,3.4719,3.4749,3.4811,3.4833,3.4894,3.4929,3.497,3.4972,3.495,3.4935,3.493,3.4875,3.4868,0,0,0,3.4656,3.4659,3.4674,3.4704,3.4752,3.4792,3.4854,3.4877,3.4915,3.4944,3.4947,3.4939,3.4938,3.4934,3.4928,3.4929,3.4991,3.4992,3.4992,3.4565,3.4614,3.4625,3.4686,3.4713,3.478,3.4806,3.4848,3.4886,3.4887,3.4899,3.486,3.4854,3.485,3.4851,3.4896,3.4896,3.4896,3.4896,3.4531,3.4543,3.4598,3.4629,3.468,3.4705,3.4769,3.4796,3.4826,3.4854,3.4855,3.4881,3.4841,3.4844,3.4893,3.4893,3.4894,3.4894,3.4894,3.4477,3.4492,3.4522,3.4572,3.4604,3.4666,3.4694,3.4739,3.4781,3.4782,3.4801,3.4802,3.4809,3.4788,3.4788,3.4788,3.4788,3.4788,3.4788,3.4409,3.4446,3.4465,3.4518,3.4545,3.4585,3.4653,3.4679,3.472,3.4751,3.4751,3.479,3.4828,3.4837,3.4786,3.4786,3.4786,3.4786,3.4787,3.4357,3.4377,3.4407,3.4434,3.4502,3.4532,3.459,3.4641,3.4669,3.4682,3.4722,3.4742,3.4762,3.4767,3.4775,3.4711,3.4711,3.4711,3.4711,3.4312,3.4328,3.437,3.441,3.4455,3.4511,3.4543,3.4597,3.4654,3.4675,3.4691,3.4705,3.4708,3.4726,3.4732,3.474,3.4668,3.4668,3.4668,3.4283,3.4306,3.4325,3.4384,3.4441,3.4489,3.4521,3.4564,3.4633,3.4667,3.4692,3.4694,3.4717,3.4722,3.4755,3.4763,3.4779,0,0]}]]